Showing default

ICEYE-X62, 66755

Orbit data source: Space-Track

ICEYE-X62, 66755 is a payload satellite owned by ICEYE (PL) in SSO that was launched on Fri, 28 Nov 2025 UTC via an FALCON 9 launch vehicle from the Air Force Western Test Range (AFWTR). Payload-class satellites include a variety of spacecraft equipped with specific instruments for various scientific and technological missions. These include communications satellites like Starlink; space stations such as the ISS; scientific satellites like the Hubble; Earth observation satellites from companies like Planet Labs, Umbra, and HawkEye 360; GPS; miniature CubeSats for education and research; and military/defense satellites.

Loading next visibility...
Identifier
66755, 2025-276CT
Orbit
SSO
Country
Flag of PLPL / POL
Related business
Manufacturer
ICEYE
Mission
Operational Commercial Radar Imaging
Bus & Motor
ICEYE, Unknown motor
Mass
120 kg wet, 120 kg dry
Launch date (UTC)
2025-11-28 (9 months ago)
Launch vehicle
FALCON 9
Launch site
Air Force Western Test Range (AFWTR)
Object type
Payload
Rocket body
Debris
Shape & HBR
Box + 1 Pan, 2.4 m
Radar Cross Section
0.776 m², Medium (>0.1 m² and < 1m²)

Expand to show TLE details & history
Last TLE update: 13 hours ago

TLE from 13 hours ago
0 ICEYE-X62
1 66755U 25276CT  26238.16455350  .00001884  00000-0  11856-3 0  9996
2 66755  97.4155 308.1770 0003999 112.5164 247.6490 15.10367883 40893
Epoch: 2026-08-26T03:56Z
TLE epoch observation values (Epoch: 2026-08-26T03:56:57.422Z)
Latitude
0.00003°
Longitude
-85.48374°
Altitude
539.207 km
Speed
7.592 km/s
True Right ascension
20h 32m 42s
True Declination
0° 00' 00"
Sunlit
Object was in full shadow at epoch
Visualization orbit readout
Latitude
Unknown
Longitude
Unknown
Altitude
Unknown
Speed
Unknown
Apparent Right ascension
Unknown
Apparent Declination
Unknown
Sunlit
N/A
Visualization observer readout
Local Sidereal Time
08:23:24
Azimuth
Unknown
Elevation
Unknown
Doppler factor
Unknown
Orbital elements
Apogee altitude
534.82 km
Perigee altitude
529.293 km
Semi-major axis
6,910.193 km
Eccentricity
0.0004
Inclination
97.4155°
RAAN
308.177°
Arg. of periapsis
112.5164°
True anomaly
247.60663°
Mean anomaly
247.649°
Eccentric anomaly
247.62781°
Mean motion
3.7784 °/min
Orbital period
95.28 mins
BSTAR
0.00011856
Loading maneuver chart data...
Computing Atmospheric mass density...
Loading historical data...
Loading historical data...
Loading historical data...
Loading historical data...
Loading historical data...
Loading historical data...
Loading historical data...

Documentation

Showing up to 5 results
|